Location: Cabeza de los Veneras
(40.2000°N, 5.2000°W)
Time: 15:48:11
(UTC+00:00)

NOSS 3-2 (A) - Pass Details

Date: 18 April 2024
Orbit: 704 x 1502 km, 63.4° (Epoch: 12 April)

Event Time Altitude Azimuth Distance (km) Brightness Sun altitude
Rises 22:57:29 0° 327° (NNW) 3,946 7.7 -35.1°
Reaches altitude 10° 23:00:02 10° 330° (NNW) 3,091 6.9 -35.3°
Enters shadow 23:07:20 67° 41° (NE) 1,423 4.2 -35.9°
